Regional Weather Roundup
Issued by NWS

Home | Current Version | Previous Version | Text Only | Print | Product List | Glossary Off
Versions: 1 2 3 4 5 6 7 8 9 10 11 12 13 14 15 16 17 18 19 20 21 22 23 24 25 26 27 28 29 30 31 32 33 34 35 36 37 38 39 40 41 42 43 44 45 46 47 48 49 50

000
ASUS45 KSLC 060710
RWRUT

UTAH REGIONAL WEATHER ROUNDUP
NATIONAL WEATHER SERVICE SALT LAKE CITY UT
100 AM MDT MON JUL 06 2015

UTZ001>011-023>025-060800-

NORTHERN UTAH

CITY           SKY/WX    TMP DP  RH WIND       PRES   REMARKS
BRIGHAM CITY   CLEAR     67  59  76 CALM      30.05S
HILL AFB       CLEAR     69  54  58 E8        30.08R
LOGAN          CLEAR     63  57  81 SW3       30.07F
OGDEN          CLEAR     70  58  65 NE5       30.05R
PROVO AIRPORT  CLEAR     72  54  53 SE6       30.06R
SALT LAKE CITY CLEAR     74  61  63 CALM      30.03R
VERNAL         CLEAR     64  55  72 W3        30.13S
WENDOVER       CLEAR     73  54  49 NW7       30.07R
HEBER CITY     CLEAR     61  52  72 CALM      30.14S
WEST JORDAN    CLEAR     72  55  56 NW6       30.07R

$$

UTZ012>022-026-027-060800-

SOUTHERN/CENTRAL UTAH

CITY           SKY/WX    TMP DP  RH WIND       PRES   REMARKS
BLANDING       CLOUDY    61  58  92 N3        30.26S
BRYCE CANYON   CLOUDY    61  46  57 N6        30.32R
CEDAR CITY     CLOUDY    71  46  40 S8        30.16R
DELTA          PTCLDY    76  42  29 S10       30.07S
HANKSVILLE     PTCLDY    72  57  60 S5        30.09R
MILFORD        MOCLDY    75  47  36 S15       30.08S
MOAB/CYNLANDS  MOCLDY    71  60  68 N13       30.06R
PRICE          CLEAR     72  55  55 E12       30.16R
ST GEORGE      SUNNY     82  48  30 SE3       30.01R
KANAB          CLOUDY    73  52  46 SW7       30.19F

$$

REGIONAL REPORTS     COLORADO/ARIZONA

CITY           SKY/WX    TMP DP  RH WIND       PRES   REMARKS
CRAIG, CO      CLEAR     53  51  93 CALM      30.22R
GRAND JUNCTION CLOUDY    66  59  78 SE10      30.11S
RIFLE          MOCLDY    61  58  90 SE5       30.17S
MONTROSE       CLOUDY    60  56  86 SE6       30.21R
CORTEZ         PTCLDY    65  53  65 NE6       30.18F
PAGE, AZ       CLOUDY    81  48  31 CALM      30.06S
GRAND CANYON   CLOUDY    60  52  74 NE6       30.28F
KINGMAN        CLOUDY    77  56  48 E6        30.08R
FLAGSTAFF      CLOUDY    57  53  86 VRB5      30.32F

$$

REGIONAL REPORTS    NEVADA/IDAHO/WYOMING

CITY           SKY/WX    TMP DP  RH WIND       PRES   REMARKS
LAS VEGAS, NV  CLOUDY    87  51  28 NW20      29.90F
ELY            MOCLDY    67  32  27 NW5       30.21R
ELKO           CLEAR     60  45  57 SW5       30.17R
POCATELLO, ID  CLOUDY    71  49  45 SW5       30.09R
BURLEY         PTCLDY    65  52  62 W6        30.05R
EVANSTON, WY   CLEAR     59  53  80 VRB3      30.25S
ROCK SPRINGS   PTCLDY    56  53  90 E5        30.24R
KEMMERER       MOCLDY    54  50  87 NW3       30.26S

$$



USA.gov is the U.S. government's official web portal to all federal, state and local government web resources and services.